Weather History for YWLM - September, 2013

Change the Weather History Date:

Friday, September 13, 2013

  Actual Average Record
Temperature  
Mean Temperature 58 °F -  
Max Temperature 64 °F - - ()
Min Temperature 51 °F - - ()
Degree Days  
Heating Degree Days 8    
Growing Degree Days 8 (Base 50)    
Moisture  
Dew Point 47 °F    
Average Humidity 64    
Maximum Humidity 82    
Minimum Humidity 41    
Precipitation  
Precipitation 0.12 in - - ()
Sea Level Pressure  
Sea Level Pressure 30.08 in    
Wind  
Wind Speed 11 mph ()    
Max Wind Speed 21 mph    
Max Gust Speed 32 mph    
Visibility 6.2 miles    
Events Rain    
T = Trace of Precipitation, MM = Missing Value Source: Averaged Metar Reports

Daily Weather History Graph

Daily Weather History Graph

Search for Another Location

Airport or City:

Trip Planner

Search our weather history database for the weather conditions in past years. The results will help you decide how hot, cold, wet, or windy it might be!

Date:

Astronomy

Sep. 13, 2013 Rise Set
Actual Time 5:54 AM AEST 5:43 PM AEST
Civil Twilight 5:30 AM AEST 6:07 PM AEST
Nautical Twilight 5:01 AM AEST 6:36 PM AEST
Astronomical Twilight 4:33 AM AEST 7:04 PM AEST
Moon 11:10 AM AEST (9/13) 12:29 AM AEST (9/13)
Length of Visible Light 12h 37m
Length of Day
11h 48m
First Quarter, 54% of the Moon is Illuminated
Sep 13
First Quarter
Sep 19
Full
Sep 27
Last Quarter
Oct 5
New
Oct 12
First Quarter

Hourly Weather History & Observations

Time (AEST) Temp. Dew Point Humidity Pressure Visibility Wind Dir Wind Speed Gust Speed Precip Events Conditions
12:00 AM 58 °F 49 °F 64% 30.07 in - SSW 19.6 mph - -  
12:00 AM 57.2 °F 50.0 °F 77% 30.06 in 6.2 mi SSW 19.6 mph - N/A   Mostly Cloudy
12:17 AM 57.2 °F 48.2 °F 72% 30.06 in 6.2 mi SSW 19.6 mph 32.2 mph N/A   Scattered Clouds
12:30 AM 55.4 °F 48.2 °F 77% 30.06 in 6.2 mi SSW 20.7 mph - N/A   Scattered Clouds
1:00 AM 55 °F 46 °F 64% 30.08 in - SSW 18.4 mph - -  
1:00 AM 55.4 °F 46.4 °F 72% 30.06 in 6.2 mi SSW 18.4 mph - N/A   Unknown
1:30 AM 55.4 °F 46.4 °F 72% 30.06 in 6.2 mi SSW 15.0 mph - N/A   Unknown
2:00 AM 55.4 °F 46.4 °F 72% 30.06 in 6.2 mi WSW 10.4 mph - N/A   Mostly Cloudy
2:30 AM 53.6 °F 46.4 °F 77% 30.06 in 6.2 mi SW 10.4 mph - N/A   Overcast
3:00 AM 53 °F 45 °F 67% 30.07 in - West 6.9 mph - -   Overcast
3:00 AM 53.6 °F 44.6 °F 72% 30.06 in 6.2 mi West 6.9 mph - N/A   Overcast
3:30 AM 53.6 °F 44.6 °F 72% 30.06 in 6.2 mi West 8.1 mph - N/A Rain Light Rain Showers
4:00 AM 53 °F 47 °F 72% 30.09 in - West 8.1 mph - -  
4:00 AM 51.8 °F 46.4 °F 82% 30.06 in 6.2 mi West 8.1 mph - N/A Rain Light Rain Showers
4:30 AM 51.8 °F 46.4 °F 82% 30.09 in 6.2 mi West 8.1 mph - N/A   Overcast
5:00 AM 51.8 °F 44.6 °F 76% 30.09 in 6.2 mi West 9.2 mph - N/A   Overcast
5:30 AM 51.8 °F 44.6 °F 76% 30.09 in 6.2 mi West 8.1 mph - N/A   Overcast
6:00 AM 52 °F 45 °F 69% 30.12 in - West 8.1 mph - -   Overcast
6:00 AM 51.8 °F 44.6 °F 76% 30.09 in 6.2 mi West 8.1 mph - N/A   Mostly Cloudy
6:30 AM 51.8 °F 44.6 °F 76% 30.12 in 6.2 mi West 6.9 mph - N/A   Mostly Cloudy
7:00 AM 53.6 °F 44.6 °F 72% 30.12 in 6.2 mi WSW 8.1 mph - N/A   Scattered Clouds
7:30 AM 53.6 °F 44.6 °F 72% 30.15 in 6.2 mi West 9.2 mph - N/A   Scattered Clouds
8:00 AM 53.6 °F 46.4 °F 77% 30.15 in 6.2 mi West 9.2 mph - N/A   Scattered Clouds
8:30 AM 57.2 °F 44.6 °F 63% 30.15 in 6.2 mi West 8.1 mph - N/A   Partly Cloudy
9:00 AM 59.0 °F 44.6 °F 59% 30.15 in 6.2 mi West 8.1 mph - N/A   Scattered Clouds
9:30 AM 60.8 °F 46.4 °F 59% 30.15 in 6.2 mi WSW 8.1 mph - N/A   Scattered Clouds
10:00 AM 60 °F 47 °F 51% 30.17 in - ESE 3.5 mph - -  
10:00 AM 60.8 °F 46.4 °F 59% 30.15 in 6.2 mi ESE 3.5 mph - N/A   Scattered Clouds
10:30 AM 60.8 °F 48.2 °F 63% 30.15 in 6.2 mi South 5.8 mph - N/A   Mostly Cloudy
11:00 AM 62.6 °F 48.2 °F 59% 30.12 in 6.2 mi SSE 8.1 mph - N/A   Partly Cloudy
11:30 AM 62.6 °F 46.4 °F 55% 30.12 in 6.2 mi SE 10.4 mph - N/A   Scattered Clouds
12:00 PM 63 °F 47 °F 46% 30.12 in - SE 10.4 mph - -  
12:00 PM 62.6 °F 48.2 °F 59% 30.09 in 6.2 mi SE 10.4 mph - N/A   Scattered Clouds
12:30 PM 62.6 °F 46.4 °F 55% 30.09 in 6.2 mi SSE 13.8 mph - N/A   Scattered Clouds
1:00 PM 62.6 °F 48.2 °F 59% 30.09 in 6.2 mi ESE 11.5 mph - N/A   Scattered Clouds
1:30 PM 64.4 °F 46.4 °F 52% 30.06 in 6.2 mi ESE 12.7 mph - N/A   Scattered Clouds
2:00 PM 62.6 °F 44.6 °F 52% 30.06 in 6.2 mi East 12.7 mph - N/A   Scattered Clouds
2:30 PM 62.6 °F 44.6 °F 52% 30.06 in 6.2 mi East 11.5 mph - N/A   Mostly Cloudy
3:00 PM 63 °F 45 °F 41% 30.07 in - ESE 12.7 mph - -  
3:00 PM 62.6 °F 44.6 °F 52% 30.06 in 6.2 mi ESE 12.7 mph - N/A   Mostly Cloudy
3:30 PM 62.6 °F 44.6 °F 52% 30.06 in 6.2 mi East 12.7 mph - N/A   Mostly Cloudy
4:00 PM 62 °F 45 °F 42% 30.06 in - East 12.7 mph - -  
4:00 PM 62.6 °F 44.6 °F 52% 30.04 in - East 12.7 mph - N/A   Clear
4:30 PM 60.8 °F 46.4 °F 59% 30.04 in 6.2 mi East 11.5 mph - N/A   Unknown
5:00 PM 60.8 °F 46.4 °F 59% 30.04 in 6.2 mi East 11.5 mph - N/A   Unknown
5:30 PM 60.8 °F 46.4 °F 59% 30.04 in 6.2 mi East 10.4 mph - N/A   Unknown
6:00 PM 60 °F 47 °F 52% 30.06 in - East 9.2 mph - -  
6:00 PM 59.0 °F 46.4 °F 63% 30.04 in 6.2 mi East 9.2 mph - N/A   Unknown
6:30 PM 59.0 °F 48.2 °F 67% 30.04 in 6.2 mi East 9.2 mph - N/A   Unknown
7:00 PM 58 °F 49 °F 62% 30.06 in - NE 5.8 mph - -  
7:00 PM 57.2 °F 48.2 °F 72% 30.06 in 6.2 mi NE 5.8 mph - N/A   Unknown
7:30 PM 59.0 °F 48.2 °F 67% 30.06 in 6.2 mi ENE 5.8 mph - N/A Rain Light Rain Showers
8:00 PM 57.2 °F 48.2 °F 72% 30.06 in 6.2 mi ENE 4.6 mph - N/A Rain Light Rain Showers
8:30 PM 57.2 °F 48.2 °F 72% 30.04 in 6.2 mi ENE 6.9 mph - N/A   Unknown
9:00 PM 58 °F 47 °F 58% 30.06 in - East 8.1 mph - -  
9:00 PM 59.0 °F 48.2 °F 67% 30.04 in 6.2 mi East 8.1 mph - N/A   Unknown
9:30 PM 59.0 °F 48.2 °F 67% 30.04 in 6.2 mi ENE 6.9 mph - N/A   Unknown
10:00 PM 59 °F 48 °F 59% 30.04 in - ENE 5.8 mph - -  
10:00 PM 59.0 °F 48.2 °F 67% 30.04 in 6.2 mi ENE 5.8 mph - N/A   Scattered Clouds
10:30 PM 60.8 °F 48.2 °F 63% 30.01 in 6.2 mi ENE 8.1 mph - N/A   Unknown
11:00 PM 60.8 °F 48.2 °F 63% 30.01 in 6.2 mi ENE 9.2 mph - N/A   Scattered Clouds
11:30 PM 60.8 °F 48.2 °F 63% 29.98 in 6.2 mi ENE 10.4 mph - N/A   Scattered Clouds